Time,TemperatureF,DewpointF,PressureIn,WindDirection,WindDirectionDegrees,WindSpeedMPH,WindSpeedGustMPH,Humidity,HourlyPrecipIn,Conditions,Clouds,dailyrainin,SoftwareType,DateUTC
2013-08-21 00:04:00,77.6,63.6,30.02,ESE,113,2.0,5.0,62,0.00,,CLR,0.00,VWS V14.01,2013-08-21 05:04:00,
2013-08-21 00:09:00,77.4,63.8,30.02,SE,131,5.0,7.0,63,0.00,,CLR,0.00,VWS V14.01,2013-08-21 05:09:00,
2013-08-21 00:14:00,77.4,64.3,30.02,ENE,62,5.0,7.0,64,0.00,,CLR,0.00,VWS V14.01,2013-08-21 05:14:00,
2013-08-21 00:19:00,77.2,64.1,30.02,ESE,107,3.0,7.0,64,0.00,,CLR,0.00,VWS V14.01,2013-08-21 05:19:00,
2013-08-21 00:24:00,77.2,63.6,30.02,ENE,59,2.0,7.0,63,0.00,,CLR,0.00,VWS V14.01,2013-08-21 05:24:00,
2013-08-21 00:29:00,77.0,63.9,30.02,East,99,0.0,7.0,64,0.00,,CLR,0.00,VWS V14.01,2013-08-21 05:29:00,
2013-08-21 00:34:00,76.8,64.2,30.02,ESE,114,0.0,7.0,65,0.00,,CLR,0.00,VWS V14.01,2013-08-21 05:34:00,
2013-08-21 00:39:00,76.7,64.5,30.02,ESE,112,0.0,7.0,66,0.00,,CLR,0.00,VWS V14.01,2013-08-21 05:39:00,
2013-08-21 00:44:00,76.5,64.3,30.02,East,93,2.0,7.0,66,0.00,,CLR,0.00,VWS V14.01,2013-08-21 05:44:00,
2013-08-21 00:49:00,76.3,64.1,30.02,SSE,164,0.0,7.0,66,0.00,,CLR,0.00,VWS V14.01,2013-08-21 05:49:00,
2013-08-21 00:54:00,76.0,64.3,30.02,East,92,2.0,7.0,67,0.00,,CLR,0.00,VWS V14.01,2013-08-21 05:54:00,
2013-08-21 00:59:00,75.8,64.1,30.02,ESE,110,1.0,7.0,67,0.00,,CLR,0.00,VWS V14.01,2013-08-21 05:59:00,
2013-08-21 01:04:00,75.6,64.3,30.02,ESE,112,2.0,3.0,68,0.00,,CLR,0.00,VWS V14.01,2013-08-21 06:04:00,
2013-08-21 01:09:00,75.3,64.4,30.02,ESE,121,2.0,5.0,69,0.00,,CLR,0.00,VWS V14.01,2013-08-21 06:09:00,
2013-08-21 01:14:00,75.1,64.7,30.02,ESE,103,1.0,5.0,70,0.00,,CLR,0.00,VWS V14.01,2013-08-21 06:14:00,
2013-08-21 01:19:00,75.1,64.7,30.02,ESE,119,5.0,5.0,70,0.00,,CLR,0.00,VWS V14.01,2013-08-21 06:19:00,
2013-08-21 01:24:00,75.1,64.7,30.02,East,92,2.0,8.0,70,0.00,,CLR,0.00,VWS V14.01,2013-08-21 06:24:00,
2013-08-21 01:29:00,75.1,65.1,30.02,ESE,109,1.0,8.0,71,0.00,,CLR,0.00,VWS V14.01,2013-08-21 06:29:00,
2013-08-21 01:34:00,75.3,65.3,30.02,East,97,0.0,8.0,71,0.00,,CLR,0.00,VWS V14.01,2013-08-21 06:34:00,
2013-08-21 01:39:00,75.3,65.3,30.02,East,86,2.0,8.0,71,0.00,,CLR,0.00,VWS V14.01,2013-08-21 06:39:00,
2013-08-21 01:44:00,75.3,65.3,30.02,ESE,104,0.0,8.0,71,0.00,,CLR,0.00,VWS V14.01,2013-08-21 06:44:00,
2013-08-21 01:49:00,75.3,65.3,30.02,ESE,107,1.0,8.0,71,0.00,,CLR,0.00,VWS V14.01,2013-08-21 06:49:00,
2013-08-21 01:54:00,75.4,65.3,30.02,ESE,107,2.0,8.0,71,0.00,,CLR,0.00,VWS V14.01,2013-08-21 06:54:00,
2013-08-21 01:59:00,75.3,65.7,30.02,East,83,0.0,8.0,72,0.00,,CLR,0.00,VWS V14.01,2013-08-21 06:59:00,
2013-08-21 02:04:00,75.3,64.8,30.02,East,92,2.0,7.0,70,0.00,,CLR,0.00,VWS V14.01,2013-08-21 07:04:00,
2013-08-21 02:09:00,75.3,65.3,30.02,ESE,112,0.0,7.0,71,0.00,,CLR,0.00,VWS V14.01,2013-08-21 07:09:00,
2013-08-21 02:15:00,75.1,65.5,30.02,ESE,113,0.0,7.0,72,0.00,,CLR,0.00,VWS V14.01,2013-08-21 07:15:00,
2013-08-21 02:20:00,75.1,65.1,30.02,East,83,3.0,7.0,71,0.00,,CLR,0.00,VWS V14.01,2013-08-21 07:20:00,
2013-08-21 02:25:00,74.9,64.9,30.02,East,99,0.0,7.0,71,0.00,,CLR,0.00,VWS V14.01,2013-08-21 07:25:00,
2013-08-21 02:30:00,74.7,65.1,30.02,SE,124,0.0,7.0,72,0.00,,CLR,0.00,VWS V14.01,2013-08-21 07:30:00,
2013-08-21 02:35:00,74.7,65.1,30.02,East,82,0.0,7.0,72,0.00,,CLR,0.00,VWS V14.01,2013-08-21 07:35:00,
2013-08-21 02:40:00,74.6,65.0,30.02,ENE,73,0.0,7.0,72,0.00,,CLR,0.00,VWS V14.01,2013-08-21 07:40:00,
2013-08-21 02:45:00,74.4,65.2,30.01,ESE,112,0.0,7.0,73,0.00,,CLR,0.00,VWS V14.01,2013-08-21 07:45:00,
2013-08-21 02:50:00,74.2,65.0,30.01,ESE,117,0.0,7.0,73,0.00,,CLR,0.00,VWS V14.01,2013-08-21 07:50:00,
2013-08-21 02:55:00,74.0,65.2,30.01,East,89,0.0,7.0,74,0.00,,CLR,0.00,VWS V14.01,2013-08-21 07:55:00,
2013-08-21 03:00:00,73.9,65.1,30.01,ESE,121,0.0,7.0,74,0.00,,CLR,0.00,VWS V14.01,2013-08-21 08:00:00,
2013-08-21 03:05:00,73.5,64.7,30.01,ENE,66,5.0,5.0,74,0.00,,CLR,0.00,VWS V14.01,2013-08-21 08:05:00,
2013-08-21 03:10:00,73.3,64.5,30.01,East,88,2.0,5.0,74,0.00,,CLR,0.00,VWS V14.01,2013-08-21 08:10:00,
2013-08-21 03:15:00,73.3,65.3,30.01,East,79,0.0,5.0,76,0.00,,CLR,0.00,VWS V14.01,2013-08-21 08:15:00,
2013-08-21 03:20:00,73.2,65.2,30.01,East,83,1.0,5.0,76,0.00,,CLR,0.00,VWS V14.01,2013-08-21 08:20:00,
2013-08-21 03:25:00,73.0,65.4,30.01,ESE,107,1.0,5.0,77,0.00,,CLR,0.00,VWS V14.01,2013-08-21 08:25:00,
2013-08-21 03:30:00,72.8,65.2,30.01,ESE,104,0.0,5.0,77,0.00,,CLR,0.00,VWS V14.01,2013-08-21 08:30:00,
2013-08-21 03:35:00,72.7,65.4,30.01,East,100,0.0,5.0,78,0.00,,CLR,0.00,VWS V14.01,2013-08-21 08:35:00,
2013-08-21 03:40:00,72.5,65.3,30.01,ESE,112,2.0,5.0,78,0.00,,CLR,0.00,VWS V14.01,2013-08-21 08:40:00,
2013-08-21 03:45:00,72.5,65.3,30.02,East,92,1.0,5.0,78,0.00,,CLR,0.00,VWS V14.01,2013-08-21 08:45:00,
2013-08-21 03:50:00,72.3,65.4,30.02,East,90,0.0,5.0,79,0.00,,CLR,0.00,VWS V14.01,2013-08-21 08:50:00,
2013-08-21 03:55:00,72.3,65.8,30.02,ESE,109,0.0,5.0,80,0.00,,CLR,0.00,VWS V14.01,2013-08-21 08:55:00,
2013-08-21 04:00:00,72.1,65.6,30.02,ESE,119,1.0,2.0,80,0.00,,CLR,0.00,VWS V14.01,2013-08-21 09:00:00,
2013-08-21 04:05:00,72.0,65.5,30.02,ESE,110,0.0,2.0,80,0.00,,CLR,0.00,VWS V14.01,2013-08-21 09:05:00,
2013-08-21 04:10:00,72.0,65.5,30.02,SSE,152,0.0,2.0,80,0.00,,CLR,0.00,VWS V14.01,2013-08-21 09:10:00,
2013-08-21 04:15:00,71.8,65.7,30.02,East,99,2.0,2.0,81,0.00,,CLR,0.00,VWS V14.01,2013-08-21 09:15:00,
2013-08-21 04:20:00,71.6,65.5,30.02,East,92,0.0,5.0,81,0.00,,CLR,0.00,VWS V14.01,2013-08-21 09:20:00,
2013-08-21 04:25:00,71.5,65.7,30.02,ESE,104,2.0,5.0,82,0.00,,CLR,0.00,VWS V14.01,2013-08-21 09:25:00,
2013-08-21 04:30:00,71.5,65.7,30.03,ENE,69,0.0,5.0,82,0.00,,CLR,0.00,VWS V14.01,2013-08-21 09:30:00,
2013-08-21 04:35:00,71.3,65.9,30.03,ESE,107,0.0,5.0,83,0.00,,CLR,0.00,VWS V14.01,2013-08-21 09:35:00,
2013-08-21 04:40:00,71.1,65.3,30.03,East,88,0.0,5.0,82,0.00,,CLR,0.00,VWS V14.01,2013-08-21 09:40:00,
2013-08-21 04:45:00,71.1,65.7,30.03,SE,127,1.0,5.0,83,0.00,,CLR,0.00,VWS V14.01,2013-08-21 09:45:00,
2013-08-21 04:50:00,70.9,65.8,30.03,SE,124,0.0,5.0,84,0.00,,CLR,0.00,VWS V14.01,2013-08-21 09:50:00,
2013-08-21 04:55:00,70.8,65.7,30.03,ESE,109,0.0,5.0,84,0.00,,CLR,0.00,VWS V14.01,2013-08-21 09:55:00,
2013-08-21 05:01:00,70.8,66.1,30.03,ESE,112,0.0,2.0,85,0.00,,CLR,0.00,VWS V14.01,2013-08-21 10:01:00,
2013-08-21 05:06:00,70.8,66.1,30.03,SE,128,0.0,2.0,85,0.00,,CLR,0.00,VWS V14.01,2013-08-21 10:06:00,
2013-08-21 05:11:00,70.8,66.4,30.03,ESE,109,1.0,5.0,86,0.00,,CLR,0.00,VWS V14.01,2013-08-21 10:11:00,
2013-08-21 05:16:00,70.8,66.4,30.03,ESE,107,2.0,5.0,86,0.00,,CLR,0.00,VWS V14.01,2013-08-21 10:16:00,
2013-08-21 05:21:00,70.8,66.4,30.03,ESE,106,0.0,5.0,86,0.00,,CLR,0.00,VWS V14.01,2013-08-21 10:21:00,
2013-08-21 05:26:00,70.8,66.4,30.03,ESE,106,0.0,5.0,86,0.00,,CLR,0.00,VWS V14.01,2013-08-21 10:26:00,
2013-08-21 05:31:00,70.8,66.4,30.04,ESE,114,0.0,5.0,86,0.00,,CLR,0.00,VWS V14.01,2013-08-21 10:31:00,
2013-08-21 05:36:00,70.6,66.2,30.04,ESE,114,0.0,5.0,86,0.00,,CLR,0.00,VWS V14.01,2013-08-21 10:36:00,
2013-08-21 05:41:00,70.6,66.2,30.04,ESE,119,0.0,5.0,86,0.00,,CLR,0.00,VWS V14.01,2013-08-21 10:41:00,
2013-08-21 05:46:00,70.6,66.2,30.04,ESE,121,0.0,5.0,86,0.00,,CLR,0.00,VWS V14.01,2013-08-21 10:46:00,
2013-08-21 05:51:00,70.6,66.2,30.04,SE,128,0.0,5.0,86,0.00,,CLR,0.00,VWS V14.01,2013-08-21 10:51:00,
2013-08-21 05:56:00,70.4,66.0,30.04,SE,130,0.0,5.0,86,0.00,,CLR,0.00,VWS V14.01,2013-08-21 10:56:00,
2013-08-21 06:01:00,70.4,66.3,30.04,ESE,107,0.0,2.0,87,0.00,,CLR,0.00,VWS V14.01,2013-08-21 11:01:00,
2013-08-21 06:06:00,70.4,66.0,30.04,SE,134,2.0,2.0,86,0.00,,CLR,0.00,VWS V14.01,2013-08-21 11:06:00,
2013-08-21 06:11:00,70.4,66.3,30.04,ESE,114,0.0,5.0,87,0.00,,CLR,0.00,VWS V14.01,2013-08-21 11:11:00,
2013-08-21 06:16:00,70.4,66.3,30.04,East,95,0.0,5.0,87,0.00,,CLR,0.00,VWS V14.01,2013-08-21 11:16:00,
2013-08-21 06:21:00,70.4,66.7,30.04,ESE,104,0.0,5.0,88,0.00,,CLR,0.00,VWS V14.01,2013-08-21 11:21:00,
2013-08-21 06:26:00,70.4,66.3,30.04,ESE,120,1.0,5.0,87,0.00,,CLR,0.00,VWS V14.01,2013-08-21 11:26:00,
2013-08-21 06:31:00,70.4,66.3,30.05,ESE,117,0.0,5.0,87,0.00,,CLR,0.00,VWS V14.01,2013-08-21 11:31:00,
2013-08-21 06:36:00,70.4,66.3,30.05,SE,131,0.0,5.0,87,0.00,,CLR,0.00,VWS V14.01,2013-08-21 11:36:00,
2013-08-21 06:41:00,70.4,66.3,30.05,ESE,116,0.0,5.0,87,0.00,,CLR,0.00,VWS V14.01,2013-08-21 11:41:00,
2013-08-21 06:46:00,70.4,66.3,30.05,ESE,103,0.0,5.0,87,0.00,,CLR,0.00,VWS V14.01,2013-08-21 11:46:00,
2013-08-21 06:51:00,70.4,66.3,30.05,ESE,114,0.0,5.0,87,0.00,,CLR,0.00,VWS V14.01,2013-08-21 11:51:00,
2013-08-21 06:56:00,70.4,66.3,30.05,South,179,0.0,5.0,87,0.00,,CLR,0.00,VWS V14.01,2013-08-21 11:56:00,
2013-08-21 07:01:00,70.4,66.0,30.06,SE,124,0.0,1.0,86,0.00,,FEW250,0.00,VWS V14.01,2013-08-21 12:01:00,
2013-08-21 07:06:00,70.4,66.0,30.06,ESE,110,0.0,2.0,86,0.00,,FEW250,0.00,VWS V14.01,2013-08-21 12:06:00,
2013-08-21 07:11:00,70.4,66.3,30.06,ESE,113,0.0,5.0,87,0.00,,FEW250,0.00,VWS V14.01,2013-08-21 12:11:00,
2013-08-21 07:16:00,70.6,66.6,30.06,ENE,73,0.0,6.0,87,0.00,,FEW250,0.00,VWS V14.01,2013-08-21 12:16:00,
2013-08-21 07:21:00,70.6,66.6,30.06,ESE,102,0.0,6.0,87,0.00,,FEW250,0.00,VWS V14.01,2013-08-21 12:21:00,
2013-08-21 07:26:00,70.6,66.6,30.06,ESE,102,0.0,6.0,87,0.00,,FEW250,0.00,VWS V14.01,2013-08-21 12:26:00,
2013-08-21 07:31:00,70.8,67.1,30.06,ESE,107,1.0,6.0,88,0.00,,FEW250,0.00,VWS V14.01,2013-08-21 12:31:00,
2013-08-21 07:36:00,70.8,66.4,30.06,South,179,0.0,6.0,86,0.00,,FEW250,0.00,VWS V14.01,2013-08-21 12:36:00,
2013-08-21 07:41:00,70.9,67.2,30.06,East,88,0.0,6.0,88,0.00,,FEW250,0.00,VWS V14.01,2013-08-21 12:41:00,
2013-08-21 07:46:00,70.9,66.8,30.06,SE,126,2.0,6.0,87,0.00,,FEW250,0.00,VWS V14.01,2013-08-21 12:46:00,
2013-08-21 07:51:00,71.1,67.0,30.06,East,100,2.0,6.0,87,0.00,,FEW250,0.00,VWS V14.01,2013-08-21 12:51:00,
2013-08-21 07:56:00,71.3,67.2,30.06,ESE,116,2.0,6.0,87,0.00,,FEW250,0.00,VWS V14.01,2013-08-21 12:56:00,
2013-08-21 08:01:00,71.3,66.9,30.07,SE,140,0.0,5.0,86,0.00,,FEW250,0.00,VWS V14.01,2013-08-21 13:01:00,
2013-08-21 08:06:00,71.6,67.2,30.07,ESE,106,1.0,5.0,86,0.00,,FEW250,0.00,VWS V14.01,2013-08-21 13:06:00,
2013-08-21 08:11:00,72.1,67.7,30.07,SE,131,0.0,5.0,86,0.00,,FEW250,0.00,VWS V14.01,2013-08-21 13:11:00,
2013-08-21 08:16:00,72.7,67.2,30.07,SE,144,0.0,5.0,83,0.00,,FEW250,0.00,VWS V14.01,2013-08-21 13:16:00,
2013-08-21 08:21:00,73.2,67.7,30.07,SE,137,0.0,5.0,83,0.00,,FEW250,0.00,VWS V14.01,2013-08-21 13:21:00,
2013-08-21 08:27:00,73.5,68.0,30.07,SSE,158,0.0,5.0,83,0.00,,FEW250,0.00,VWS V14.01,2013-08-21 13:27:00,
2013-08-21 08:32:00,74.0,68.5,30.07,SSE,152,0.0,5.0,83,0.00,,FEW250,0.00,VWS V14.01,2013-08-21 13:32:00,
2013-08-21 08:37:00,74.4,68.6,30.07,SE,144,0.0,5.0,82,0.00,,FEW250,0.00,VWS V14.01,2013-08-21 13:37:00,
2013-08-21 08:42:00,74.7,68.1,30.07,ESE,119,0.0,5.0,80,0.00,,FEW250,0.00,VWS V14.01,2013-08-21 13:42:00,
2013-08-21 08:47:00,75.1,67.4,30.07,SW,232,0.0,5.0,77,0.00,,FEW250,0.00,VWS V14.01,2013-08-21 13:47:00,
2013-08-21 08:52:00,75.3,67.6,30.07,SSW,200,0.0,6.0,77,0.00,,FEW250,0.00,VWS V14.01,2013-08-21 13:52:00,
2013-08-21 08:57:00,75.8,68.1,30.07,South,169,0.0,7.0,77,0.00,,FEW250,0.00,VWS V14.01,2013-08-21 13:57:00,
2013-08-21 09:02:00,76.3,68.2,30.07,SE,128,2.0,5.0,76,0.00,,SCT250,0.00,VWS V14.01,2013-08-21 14:02:00,
2013-08-21 09:07:00,76.8,68.7,30.07,SSW,193,3.0,5.0,76,0.00,,SCT250,0.00,VWS V14.01,2013-08-21 14:07:00,
2013-08-21 09:12:00,77.4,68.9,30.07,SE,128,0.0,5.0,75,0.00,,SCT250,0.00,VWS V14.01,2013-08-21 14:12:00,
2013-08-21 09:17:00,77.6,68.7,30.08,South,169,0.0,5.0,74,0.00,,SCT250,0.00,VWS V14.01,2013-08-21 14:17:00,
2013-08-21 09:22:00,77.9,68.6,30.08,SSE,167,2.0,5.0,73,0.00,,SCT250,0.00,VWS V14.01,2013-08-21 14:22:00,
2013-08-21 09:27:00,78.3,68.5,30.08,ESE,117,0.0,6.0,72,0.00,,SCT250,0.00,VWS V14.01,2013-08-21 14:27:00,
2013-08-21 09:32:00,78.8,69.0,30.07,East,85,2.0,6.0,72,0.00,,SCT250,0.00,VWS V14.01,2013-08-21 14:32:00,
2013-08-21 09:37:00,78.8,68.6,30.07,SE,145,0.0,7.0,71,0.00,,SCT250,0.00,VWS V14.01,2013-08-21 14:37:00,
2013-08-21 09:42:00,79.2,68.6,30.07,ESE,116,0.0,7.0,70,0.00,,SCT250,0.00,VWS V14.01,2013-08-21 14:42:00,
2013-08-21 09:47:00,79.6,68.1,30.08,SSE,164,0.0,7.0,68,0.00,,SCT250,0.00,VWS V14.01,2013-08-21 14:47:00,
2013-08-21 09:52:00,79.8,68.7,30.08,SE,140,1.0,7.0,69,0.00,,SCT250,0.00,VWS V14.01,2013-08-21 14:52:00,
2013-08-21 09:57:00,80.1,68.6,30.08,South,169,0.0,7.0,68,0.00,,SCT250,0.00,VWS V14.01,2013-08-21 14:57:00,
2013-08-21 10:02:00,80.3,68.8,30.08,SSE,160,0.0,2.0,68,0.00,,SCT250,0.00,VWS V14.01,2013-08-21 15:02:00,
2013-08-21 10:07:00,80.7,69.6,30.08,ESE,109,1.0,5.0,69,0.00,,SCT250,0.00,VWS V14.01,2013-08-21 15:07:00,
2013-08-21 10:12:00,81.2,69.2,30.08,SSE,151,0.0,6.0,67,0.00,,SCT250,0.00,VWS V14.01,2013-08-21 15:12:00,
2013-08-21 10:17:00,82.0,69.5,30.08,SSE,152,0.0,6.0,66,0.00,,SCT250,0.00,VWS V14.01,2013-08-21 15:17:00,
2013-08-21 10:22:00,82.2,69.7,30.08,South,178,2.0,6.0,66,0.00,,SCT250,0.00,VWS V14.01,2013-08-21 15:22:00,
2013-08-21 10:27:00,82.2,67.9,30.08,SW,216,2.0,7.0,62,0.00,,SCT250,0.00,VWS V14.01,2013-08-21 15:27:00,
2013-08-21 10:32:00,82.4,68.6,30.08,ESE,123,0.0,7.0,63,0.00,,SCT250,0.00,VWS V14.01,2013-08-21 15:32:00,
2013-08-21 10:37:00,82.6,69.2,30.08,SE,140,0.0,7.0,64,0.00,,SCT250,0.00,VWS V14.01,2013-08-21 15:37:00,
2013-08-21 10:42:00,83.2,69.8,30.08,SSE,155,0.0,7.0,64,0.00,,SCT250,0.00,VWS V14.01,2013-08-21 15:42:00,
2013-08-21 10:47:00,83.4,69.5,30.08,SE,126,1.0,7.0,63,0.00,,SCT250,0.00,VWS V14.01,2013-08-21 15:47:00,
2013-08-21 10:52:00,83.4,69.5,30.08,SSE,162,3.0,7.0,63,0.00,,SCT250,0.00,VWS V14.01,2013-08-21 15:52:00,
2013-08-21 10:57:00,84.0,69.6,30.08,SSW,205,0.0,7.0,62,0.00,,SCT250,0.00,VWS V14.01,2013-08-21 15:57:00,
2013-08-21 11:02:00,84.3,69.4,30.08,South,171,0.0,2.0,61,0.00,,SCT250,0.00,VWS V14.01,2013-08-21 16:02:00,
2013-08-21 11:07:00,84.1,68.7,30.08,South,189,1.0,8.0,60,0.00,,SCT250,0.00,VWS V14.01,2013-08-21 16:07:00,
2013-08-21 11:12:00,84.5,69.1,30.08,SSW,193,0.0,8.0,60,0.00,,SCT250,0.00,VWS V14.01,2013-08-21 16:12:00,
2013-08-21 11:17:00,84.9,69.5,30.07,South,174,5.0,8.0,60,0.00,,SCT250,0.00,VWS V14.01,2013-08-21 16:17:00,
2013-08-21 11:22:00,84.5,68.1,30.07,SSW,199,5.0,10.0,58,0.00,,SCT250,0.00,VWS V14.01,2013-08-21 16:22:00,
2013-08-21 11:27:00,84.7,69.3,30.07,South,185,0.0,10.0,60,0.00,,SCT250,0.00,VWS V14.01,2013-08-21 16:27:00,
2013-08-21 11:32:00,85.1,68.7,30.07,SSE,151,5.0,10.0,58,0.00,,SCT250,0.00,VWS V14.01,2013-08-21 16:32:00,
2013-08-21 11:37:00,84.9,69.0,30.07,SE,144,3.0,10.0,59,0.00,,SCT250,0.00,VWS V14.01,2013-08-21 16:37:00,
2013-08-21 11:42:00,84.9,68.0,30.07,SSW,209,6.0,11.0,57,0.00,,SCT250,0.00,VWS V14.01,2013-08-21 16:42:00,
2013-08-21 11:47:00,85.3,69.8,30.08,South,189,6.0,11.0,60,0.00,,SCT250,0.00,VWS V14.01,2013-08-21 16:47:00,
2013-08-21 11:52:00,85.7,69.2,30.08,SSE,161,0.0,11.0,58,0.00,,SCT250,0.00,VWS V14.01,2013-08-21 16:52:00,
2013-08-21 11:57:00,85.9,69.9,30.08,SE,143,3.0,11.0,59,0.00,,SCT250,0.00,VWS V14.01,2013-08-21 16:57:00,
2013-08-21 12:00:00,86.1,70.1,30.07,SSE,167,0.0,11.0,59,0.00,,OVC041CB,0.00,VWS V14.01,2013-08-21 17:00:00,
2013-08-21 12:03:00,86.1,69.6,30.07,SW,219,3.0,8.0,58,0.00,,FEW250,0.00,VWS V14.01,2013-08-21 17:03:00,
2013-08-21 12:08:00,86.5,70.5,30.07,South,186,0.0,10.0,59,0.00,,FEW250,0.00,VWS V14.01,2013-08-21 17:08:00,
2013-08-21 12:13:00,87.0,70.4,30.07,South,179,6.0,10.0,58,0.00,,FEW250,0.00,VWS V14.01,2013-08-21 17:13:00,
2013-08-21 12:18:00,87.2,69.6,30.07,SSW,192,1.0,10.0,56,0.00,,FEW250,0.00,VWS V14.01,2013-08-21 17:18:00,
2013-08-21 12:23:00,87.4,69.8,30.07,SE,137,1.0,10.0,56,0.00,,FEW250,0.00,VWS V14.01,2013-08-21 17:23:00,
2013-08-21 12:28:00,87.8,69.6,30.07,South,178,5.0,10.0,55,0.00,,FEW250,0.00,VWS V14.01,2013-08-21 17:28:00,
2013-08-21 12:33:00,87.8,69.6,30.07,South,185,2.0,10.0,55,0.00,,FEW250,0.00,VWS V14.01,2013-08-21 17:33:00,
2013-08-21 12:38:00,88.0,69.3,30.07,SSE,167,5.0,10.0,54,0.00,,FEW250,0.00,VWS V14.01,2013-08-21 17:38:00,
2013-08-21 12:43:00,87.8,69.6,30.07,SSW,196,5.0,12.0,55,0.00,,FEW250,0.00,VWS V14.01,2013-08-21 17:43:00,
2013-08-21 12:48:00,87.8,68.0,30.07,South,184,2.0,12.0,52,0.00,,FEW250,0.00,VWS V14.01,2013-08-21 17:48:00,
2013-08-21 12:53:00,88.2,70.0,30.07,South,189,5.0,12.0,55,0.00,,FEW250,0.00,VWS V14.01,2013-08-21 17:53:00,
2013-08-21 12:58:00,88.4,68.6,30.07,SSW,203,2.0,12.0,52,0.00,,FEW250,0.00,VWS V14.01,2013-08-21 17:58:00,
2013-08-21 13:03:00,88.6,69.3,30.07,SSW,200,0.0,7.0,53,0.00,,SCT250,0.00,VWS V14.01,2013-08-21 18:03:00,
2013-08-21 13:08:00,89.0,69.1,30.07,SSW,193,1.0,7.0,52,0.00,,SCT250,0.00,VWS V14.01,2013-08-21 18:08:00,
2013-08-21 13:13:00,89.5,71.2,30.07,SSE,154,1.0,7.0,55,0.00,,SCT250,0.00,VWS V14.01,2013-08-21 18:13:00,
2013-08-21 13:18:00,89.7,70.3,30.06,SSE,168,2.0,7.0,53,0.00,,SCT250,0.00,VWS V14.01,2013-08-21 18:18:00,
2013-08-21 13:23:00,89.9,67.0,30.06,WSW,246,2.0,11.0,47,0.00,,SCT250,0.00,VWS V14.01,2013-08-21 18:23:00,
2013-08-21 13:28:00,89.7,69.8,30.06,SSW,196,0.0,11.0,52,0.00,,SCT250,0.00,VWS V14.01,2013-08-21 18:28:00,
2013-08-21 13:33:00,89.9,69.4,30.06,ESE,123,0.0,11.0,51,0.00,,SCT250,0.00,VWS V14.01,2013-08-21 18:33:00,
2013-08-21 13:38:00,90.1,69.0,30.06,SSE,165,1.0,11.0,50,0.00,,SCT250,0.00,VWS V14.01,2013-08-21 18:38:00,
2013-08-21 13:43:00,90.5,70.5,30.06,East,93,5.0,11.0,52,0.00,,SCT250,0.00,VWS V14.01,2013-08-21 18:43:00,
2013-08-21 13:48:00,90.7,69.5,30.05,SSW,198,2.0,11.0,50,0.00,,SCT250,0.00,VWS V14.01,2013-08-21 18:48:00,
2013-08-21 13:53:00,90.7,68.3,30.05,SSE,164,0.0,11.0,48,0.00,,SCT250,0.00,VWS V14.01,2013-08-21 18:53:00,
2013-08-21 13:58:00,90.5,68.2,30.05,SSW,200,3.0,11.0,48,0.00,,SCT250,0.00,VWS V14.01,2013-08-21 18:58:00,
2013-08-21 14:03:00,90.5,68.2,30.04,SW,219,0.0,8.0,48,0.00,,SCT250,0.00,VWS V14.01,2013-08-21 19:03:00,
2013-08-21 14:08:00,91.2,70.0,30.04,South,182,1.0,8.0,50,0.00,,SCT250,0.00,VWS V14.01,2013-08-21 19:08:00,
2013-08-21 14:13:00,91.4,67.7,30.04,SE,138,2.0,8.0,46,0.00,,SCT250,0.00,VWS V14.01,2013-08-21 19:13:00,
2013-08-21 14:18:00,91.6,67.3,30.04,SW,220,5.0,8.0,45,0.00,,SCT250,0.00,VWS V14.01,2013-08-21 19:18:00,
2013-08-21 14:23:00,91.4,67.1,30.04,SSW,200,5.0,12.0,45,0.00,,SCT250,0.00,VWS V14.01,2013-08-21 19:23:00,
2013-08-21 14:28:00,91.2,66.3,30.04,SE,145,0.0,12.0,44,0.00,,SCT250,0.00,VWS V14.01,2013-08-21 19:28:00,
2013-08-21 14:33:00,91.2,67.6,30.04,SSE,150,2.0,12.0,46,0.00,,SCT250,0.00,VWS V14.01,2013-08-21 19:33:00,
2013-08-21 14:38:00,91.2,66.9,30.04,SSW,212,3.0,12.0,45,0.00,,SCT250,0.00,VWS V14.01,2013-08-21 19:38:00,
2013-08-21 14:43:00,91.6,63.2,30.04,SE,141,5.0,12.0,39,0.00,,SCT250,0.00,VWS V14.01,2013-08-21 19:43:00,
2013-08-21 14:48:00,92.1,67.7,30.03,South,181,3.0,12.0,45,0.00,,SCT250,0.00,VWS V14.01,2013-08-21 19:48:00,
2013-08-21 14:53:00,91.8,66.1,30.03,SSW,196,2.0,12.0,43,0.00,,SCT250,0.00,VWS V14.01,2013-08-21 19:53:00,
2013-08-21 14:58:00,91.8,68.1,30.03,SSW,208,10.0,12.0,46,0.00,,SCT250,0.00,VWS V14.01,2013-08-21 19:58:00,
2013-08-21 15:00:00,91.6,69.8,30.03,SSW,195,5.0,12.0,49,0.00,,OVC041CB,0.00,VWS V14.01,2013-08-21 20:00:00,
2013-08-21 15:03:00,91.6,70.3,30.03,SSW,192,0.0,5.0,50,0.00,,SCT250,0.00,VWS V14.01,2013-08-21 20:03:00,
2013-08-21 15:08:00,91.6,69.8,30.03,South,171,0.0,7.0,49,0.00,,SCT250,0.00,VWS V14.01,2013-08-21 20:08:00,
2013-08-21 15:13:00,91.4,69.0,30.03,SSE,150,0.0,7.0,48,0.00,,SCT250,0.00,VWS V14.01,2013-08-21 20:13:00,
2013-08-21 15:18:00,91.6,65.3,30.03,East,95,1.0,12.0,42,0.00,,SCT250,0.00,VWS V14.01,2013-08-21 20:18:00,
2013-08-21 15:23:00,92.1,66.4,30.03,SSW,208,2.0,12.0,43,0.00,,SCT250,0.00,VWS V14.01,2013-08-21 20:23:00,
2013-08-21 15:28:00,92.5,67.4,30.03,SSW,200,2.0,12.0,44,0.00,,SCT250,0.00,VWS V14.01,2013-08-21 20:28:00,
2013-08-21 15:33:00,92.5,68.7,30.02,South,179,0.0,12.0,46,0.00,,SCT250,0.00,VWS V14.01,2013-08-21 20:33:00,
2013-08-21 15:38:00,92.9,69.7,30.02,SSE,168,2.0,12.0,47,0.00,,SCT250,0.00,VWS V14.01,2013-08-21 20:38:00,
2013-08-21 15:44:00,92.9,69.7,30.02,SSW,193,5.0,12.0,47,0.00,,SCT250,0.00,VWS V14.01,2013-08-21 20:44:00,
2013-08-21 15:49:00,92.9,69.1,30.02,SSE,147,0.0,12.0,46,0.00,,SCT250,0.00,VWS V14.01,2013-08-21 20:49:00,
2013-08-21 15:54:00,93.2,68.1,30.02,South,172,2.0,12.0,44,0.00,,SCT250,0.00,VWS V14.01,2013-08-21 20:54:00,
2013-08-21 15:59:00,93.2,68.7,30.02,SSW,199,0.0,12.0,45,0.00,,SCT250,0.00,VWS V14.01,2013-08-21 20:59:00,
2013-08-21 16:00:00,92.9,68.4,30.02,SSW,203,5.0,12.0,45,0.00,,OVC041CB,0.00,VWS V14.01,2013-08-21 21:00:00,
2013-08-21 16:04:00,92.7,68.3,30.02,SE,140,0.0,7.0,45,0.00,,CLR,0.00,VWS V14.01,2013-08-21 21:04:00,
2013-08-21 16:09:00,92.9,67.1,30.02,SE,126,0.0,7.0,43,0.00,,CLR,0.00,VWS V14.01,2013-08-21 21:09:00,
2013-08-21 16:14:00,92.7,67.6,30.02,SW,220,6.0,8.0,44,0.00,,CLR,0.00,VWS V14.01,2013-08-21 21:14:00,
2013-08-21 16:19:00,92.5,68.1,30.01,SE,126,0.0,10.0,45,0.00,,CLR,0.00,VWS V14.01,2013-08-21 21:19:00,
2013-08-21 16:24:00,92.5,69.3,30.01,SSE,152,0.0,10.0,47,0.00,,CLR,0.00,VWS V14.01,2013-08-21 21:24:00,
2013-08-21 16:29:00,92.7,67.6,30.01,SSW,195,2.0,10.0,44,0.00,,CLR,0.00,VWS V14.01,2013-08-21 21:29:00,
2013-08-21 16:34:00,92.7,69.5,30.01,SSW,203,0.0,10.0,47,0.00,,CLR,0.00,VWS V14.01,2013-08-21 21:34:00,
2013-08-21 16:39:00,92.5,70.0,30.01,SW,234,1.0,10.0,48,0.00,,CLR,0.00,VWS V14.01,2013-08-21 21:39:00,
2013-08-21 16:44:00,92.5,66.8,30.01,SSE,162,1.0,10.0,43,0.00,,CLR,0.00,VWS V14.01,2013-08-21 21:44:00,
2013-08-21 16:49:00,92.5,66.8,30.01,ESE,123,2.0,10.0,43,0.00,,CLR,0.00,VWS V14.01,2013-08-21 21:49:00,
2013-08-21 16:54:00,92.1,66.4,30.01,SSW,212,5.0,10.0,43,0.00,,CLR,0.00,VWS V14.01,2013-08-21 21:54:00,
2013-08-21 16:59:00,92.1,66.4,30.01,SSW,198,7.0,10.0,43,0.00,,CLR,0.00,VWS V14.01,2013-08-21 21:59:00,
2013-08-21 17:04:00,91.6,66.0,30.01,SSW,200,5.0,10.0,43,0.00,,FEW060,0.00,VWS V14.01,2013-08-21 22:04:00,
2013-08-21 17:09:00,91.8,66.8,30.01,SE,133,0.0,10.0,44,0.00,,FEW060,0.00,VWS V14.01,2013-08-21 22:09:00,
2013-08-21 17:14:00,92.1,65.0,30.01,ESE,114,0.0,10.0,41,0.00,,FEW060,0.00,VWS V14.01,2013-08-21 22:14:00,
2013-08-21 17:19:00,91.8,63.3,30.01,SSW,205,0.0,10.0,39,0.00,,FEW060,0.00,VWS V14.01,2013-08-21 22:19:00,
2013-08-21 17:24:00,92.1,65.0,30.01,SSW,202,2.0,10.0,41,0.00,,FEW060,0.00,VWS V14.01,2013-08-21 22:24:00,
2013-08-21 17:29:00,92.1,64.3,30.01,SSW,198,1.0,10.0,40,0.00,,FEW060,0.00,VWS V14.01,2013-08-21 22:29:00,
2013-08-21 17:34:00,92.5,64.0,30.01,SSE,160,1.0,10.0,39,0.00,,FEW060,0.00,VWS V14.01,2013-08-21 22:34:00,
2013-08-21 17:39:00,92.3,65.2,30.01,SE,144,5.0,10.0,41,0.00,,FEW060,0.00,VWS V14.01,2013-08-21 22:39:00,
2013-08-21 17:44:00,92.1,66.4,30.01,South,185,2.0,10.0,43,0.00,,FEW060,0.00,VWS V14.01,2013-08-21 22:44:00,
2013-08-21 17:49:00,92.1,65.7,30.01,South,175,2.0,10.0,42,0.00,,FEW060,0.00,VWS V14.01,2013-08-21 22:49:00,
2013-08-21 17:54:00,91.8,65.5,30.01,SE,134,0.0,10.0,42,0.00,,FEW060,0.00,VWS V14.01,2013-08-21 22:54:00,
2013-08-21 17:59:00,91.8,66.1,30.01,ESE,121,0.0,10.0,43,0.00,,FEW060,0.00,VWS V14.01,2013-08-21 22:59:00,
2013-08-21 18:04:00,92.1,66.4,30.01,SSE,147,0.0,3.0,43,0.00,,FEW060,0.00,VWS V14.01,2013-08-21 23:04:00,
2013-08-21 18:09:00,91.8,68.1,30.01,SE,136,1.0,3.0,46,0.00,,FEW060,0.00,VWS V14.01,2013-08-21 23:09:00,
2013-08-21 18:14:00,91.4,69.0,30.01,SE,131,0.0,5.0,48,0.00,,FEW060,0.00,VWS V14.01,2013-08-21 23:14:00,
2013-08-21 18:19:00,90.7,68.3,30.01,East,93,0.0,5.0,48,0.00,,FEW060,0.00,VWS V14.01,2013-08-21 23:19:00,
2013-08-21 18:24:00,90.5,67.5,30.01,ENE,71,0.0,5.0,47,0.00,,FEW060,0.00,VWS V14.01,2013-08-21 23:24:00,
2013-08-21 18:29:00,89.7,67.4,30.00,ENE,76,1.0,7.0,48,0.00,,FEW060,0.00,VWS V14.01,2013-08-21 23:29:00,
2013-08-21 18:34:00,89.3,67.1,30.00,East,79,1.0,7.0,48,0.00,,FEW060,0.00,VWS V14.01,2013-08-21 23:34:00,
2013-08-21 18:39:00,89.3,66.4,30.00,East,96,1.0,7.0,47,0.00,,FEW060,0.00,VWS V14.01,2013-08-21 23:39:00,
2013-08-21 18:44:00,89.3,66.4,30.01,ESE,121,0.0,7.0,47,0.00,,FEW060,0.00,VWS V14.01,2013-08-21 23:44:00,
2013-08-21 18:49:00,89.0,68.0,30.01,East,89,1.0,7.0,50,0.00,,FEW060,0.00,VWS V14.01,2013-08-21 23:49:00,
2013-08-21 18:54:00,89.0,66.8,30.01,ENE,78,3.0,7.0,48,0.00,,FEW060,0.00,VWS V14.01,2013-08-21 23:54:00,
2013-08-21 18:59:00,89.0,66.2,30.00,South,175,0.0,7.0,47,0.00,,FEW060,0.00,VWS V14.01,2013-08-21 23:59:00,
2013-08-21 19:04:00,88.8,67.2,30.00,East,100,1.0,5.0,49,0.00,,FEW060,0.00,VWS V14.01,2013-08-22 00:04:00,
2013-08-21 19:09:00,88.6,67.6,30.00,ESE,102,0.0,5.0,50,0.00,,FEW060,0.00,VWS V14.01,2013-08-22 00:09:00,
2013-08-21 19:14:00,88.2,68.4,30.00,East,83,0.0,5.0,52,0.00,,FEW060,0.00,VWS V14.01,2013-08-22 00:14:00,
2013-08-21 19:20:00,87.8,68.0,30.00,East,92,0.0,5.0,52,0.00,,FEW060,0.00,VWS V14.01,2013-08-22 00:20:00,
2013-08-21 19:25:00,87.6,67.8,30.00,SE,140,0.0,5.0,52,0.00,,FEW060,0.00,VWS V14.01,2013-08-22 00:25:00,
2013-08-21 19:30:00,87.4,68.2,30.00,SE,138,0.0,5.0,53,0.00,,FEW060,0.00,VWS V14.01,2013-08-22 00:30:00,
2013-08-21 19:35:00,87.2,68.0,30.00,SE,137,0.0,5.0,53,0.00,,FEW060,0.00,VWS V14.01,2013-08-22 00:35:00,
2013-08-21 19:40:00,87.0,68.9,30.00,SE,136,0.0,5.0,55,0.00,,FEW060,0.00,VWS V14.01,2013-08-22 00:40:00,
2013-08-21 19:45:00,86.5,68.4,30.00,SE,136,1.0,5.0,55,0.00,,FEW060,0.00,VWS V14.01,2013-08-22 00:45:00,
2013-08-21 19:50:00,86.1,68.1,30.00,SE,136,0.0,5.0,55,0.00,,FEW060,0.00,VWS V14.01,2013-08-22 00:50:00,
2013-08-21 19:55:00,85.9,68.4,30.00,SE,134,0.0,5.0,56,0.00,,FEW060,0.00,VWS V14.01,2013-08-22 00:55:00,
2013-08-21 20:00:00,85.7,68.7,30.00,SE,134,0.0,5.0,57,0.00,,FEW060,0.00,VWS V14.01,2013-08-22 01:00:00,
2013-08-21 20:05:00,85.3,68.3,30.00,SE,134,0.0,1.0,57,0.00,,CLR,0.00,VWS V14.01,2013-08-22 01:05:00,
2013-08-21 20:10:00,85.1,67.7,30.00,SE,134,0.0,1.0,56,0.00,,CLR,0.00,VWS V14.01,2013-08-22 01:10:00,
2013-08-21 20:15:00,84.9,67.5,30.00,SE,134,0.0,2.0,56,0.00,,CLR,0.00,VWS V14.01,2013-08-22 01:15:00,
2013-08-21 20:20:00,84.9,67.5,30.00,SE,134,0.0,2.0,56,0.00,,CLR,0.00,VWS V14.01,2013-08-22 01:20:00,
2013-08-21 20:25:00,84.7,67.3,30.00,SE,131,0.0,2.0,56,0.00,,CLR,0.00,VWS V14.01,2013-08-22 01:25:00,
2013-08-21 20:30:00,84.5,67.6,30.01,SE,131,0.0,2.0,57,0.00,,CLR,0.00,VWS V14.01,2013-08-22 01:30:00,
2013-08-21 20:35:00,84.3,67.4,30.01,ESE,104,0.0,2.0,57,0.00,,CLR,0.00,VWS V14.01,2013-08-22 01:35:00,
2013-08-21 20:40:00,84.1,68.2,30.01,SE,131,1.0,2.0,59,0.00,,CLR,0.00,VWS V14.01,2013-08-22 01:40:00,
2013-08-21 20:45:00,84.0,67.7,30.01,ESE,117,0.0,2.0,58,0.00,,CLR,0.00,VWS V14.01,2013-08-22 01:45:00,
2013-08-21 20:50:00,84.0,67.7,30.01,East,100,0.0,3.0,58,0.00,,CLR,0.00,VWS V14.01,2013-08-22 01:50:00,
2013-08-21 20:55:00,83.8,67.5,30.01,ESE,107,0.0,3.0,58,0.00,,CLR,0.00,VWS V14.01,2013-08-22 01:55:00,
2013-08-21 21:00:00,83.8,67.0,30.01,ESE,106,1.0,1.0,57,0.00,,SCT250,0.00,VWS V14.01,2013-08-22 02:00:00,
2013-08-21 21:05:00,83.6,66.8,30.01,SE,136,0.0,2.0,57,0.00,,SCT250,0.00,VWS V14.01,2013-08-22 02:05:00,
2013-08-21 21:10:00,83.6,66.8,30.01,East,97,0.0,3.0,57,0.00,,SCT250,0.00,VWS V14.01,2013-08-22 02:10:00,
2013-08-21 21:15:00,83.6,66.8,30.01,ESE,110,0.0,3.0,57,0.00,,SCT250,0.00,VWS V14.01,2013-08-22 02:15:00,
2013-08-21 21:20:00,83.6,66.8,30.01,ESE,119,0.0,5.0,57,0.00,,SCT250,0.00,VWS V14.01,2013-08-22 02:20:00,
2013-08-21 21:25:00,83.6,66.8,30.01,ESE,120,0.0,5.0,57,0.00,,SCT250,0.00,VWS V14.01,2013-08-22 02:25:00,
2013-08-21 21:30:00,83.6,66.8,30.01,SE,134,0.0,5.0,57,0.00,,SCT250,0.00,VWS V14.01,2013-08-22 02:30:00,
2013-08-21 21:35:00,83.6,67.3,30.01,East,82,2.0,5.0,58,0.00,,SCT250,0.00,VWS V14.01,2013-08-22 02:35:00,
2013-08-21 21:40:00,83.4,67.1,30.01,East,92,0.0,5.0,58,0.00,,SCT250,0.00,VWS V14.01,2013-08-22 02:40:00,
2013-08-21 21:45:00,83.2,66.9,30.03,East,92,0.0,5.0,58,0.00,,SCT250,0.00,VWS V14.01,2013-08-22 02:45:00,
2013-08-21 21:50:00,83.0,66.7,30.03,ESE,104,0.0,5.0,58,0.00,,SCT250,0.00,VWS V14.01,2013-08-22 02:50:00,
2013-08-21 21:55:00,82.8,67.0,30.03,ESE,102,0.0,5.0,59,0.00,,SCT250,0.00,VWS V14.01,2013-08-22 02:55:00,
2013-08-21 22:00:00,82.8,67.0,30.03,SE,133,0.0,0.0,59,0.00,,CLR,0.00,VWS V14.01,2013-08-22 03:00:00,
2013-08-21 22:05:00,82.6,67.3,30.03,ESE,114,0.0,1.0,60,0.00,,CLR,0.00,VWS V14.01,2013-08-22 03:05:00,
2013-08-21 22:10:00,82.4,67.1,30.03,ESE,121,0.0,5.0,60,0.00,,CLR,0.00,VWS V14.01,2013-08-22 03:10:00,
2013-08-21 22:15:00,82.4,67.6,30.03,ESE,113,0.0,5.0,61,0.00,,CLR,0.00,VWS V14.01,2013-08-22 03:15:00,
2013-08-21 22:20:00,82.4,67.6,30.03,ESE,110,0.0,7.0,61,0.00,,CLR,0.00,VWS V14.01,2013-08-22 03:20:00,
2013-08-21 22:25:00,82.2,67.9,30.03,ESE,123,0.0,7.0,62,0.00,,CLR,0.00,VWS V14.01,2013-08-22 03:25:00,
2013-08-21 22:30:00,82.0,67.7,30.03,ESE,109,0.0,7.0,62,0.00,,CLR,0.00,VWS V14.01,2013-08-22 03:30:00,
2013-08-21 22:35:00,81.8,68.0,30.03,ESE,113,1.0,7.0,63,0.00,,CLR,0.00,VWS V14.01,2013-08-22 03:35:00,
2013-08-21 22:40:00,81.6,67.8,30.03,SE,138,1.0,7.0,63,0.00,,CLR,0.00,VWS V14.01,2013-08-22 03:40:00,
2013-08-21 22:45:00,81.6,67.8,30.03,ESE,110,0.0,7.0,63,0.00,,CLR,0.00,VWS V14.01,2013-08-22 03:45:00,
2013-08-21 22:50:00,81.4,68.1,30.03,ESE,107,1.0,7.0,64,0.00,,CLR,0.00,VWS V14.01,2013-08-22 03:50:00,
2013-08-21 22:55:00,81.2,67.9,30.03,SE,138,0.0,7.0,64,0.00,,CLR,0.00,VWS V14.01,2013-08-22 03:55:00,
2013-08-21 23:01:00,81.1,68.2,30.03,SE,134,0.0,2.0,65,0.00,,CLR,0.00,VWS V14.01,2013-08-22 04:01:00,
2013-08-21 23:02:00,81.1,68.2,30.03,ESE,117,2.0,3.0,65,0.00,,CLR,0.00,VWS V14.01,2013-08-22 04:02:00,
2013-08-21 23:03:00,80.9,68.0,30.03,ESE,120,0.0,3.0,65,0.00,,CLR,0.00,VWS V14.01,2013-08-22 04:03:00,
2013-08-21 23:04:00,80.9,68.0,30.03,SSE,147,0.0,3.0,65,0.00,,CLR,0.00,VWS V14.01,2013-08-22 04:04:00,
2013-08-21 23:08:00,80.7,67.8,30.03,ESE,121,0.0,5.0,65,0.00,,CLR,0.00,VWS V14.01,2013-08-22 04:08:00,
2013-08-21 23:13:00,80.5,67.7,30.03,SSE,147,0.0,5.0,65,0.00,,CLR,0.00,VWS V14.01,2013-08-22 04:13:00,
2013-08-21 23:18:00,80.3,67.9,30.03,ESE,114,0.0,5.0,66,0.00,,CLR,0.00,VWS V14.01,2013-08-22 04:18:00,
2013-08-21 23:23:00,80.1,67.7,30.03,SE,124,0.0,5.0,66,0.00,,CLR,0.00,VWS V14.01,2013-08-22 04:23:00,
2013-08-21 23:28:00,79.9,68.0,30.03,SSE,158,0.0,5.0,67,0.00,,CLR,0.00,VWS V14.01,2013-08-22 04:28:00,
2013-08-21 23:33:00,79.8,67.9,30.04,ESE,119,0.0,5.0,67,0.00,,CLR,0.00,VWS V14.01,2013-08-22 04:33:00,
2013-08-21 23:38:00,79.6,67.7,30.04,SE,141,1.0,5.0,67,0.00,,CLR,0.00,VWS V14.01,2013-08-22 04:38:00,
2013-08-21 23:43:00,79.6,67.7,30.04,ESE,112,0.0,5.0,67,0.00,,CLR,0.00,VWS V14.01,2013-08-22 04:43:00,
2013-08-21 23:48:00,79.4,67.9,30.04,SSE,164,0.0,5.0,68,0.00,,CLR,0.00,VWS V14.01,2013-08-22 04:48:00,
2013-08-21 23:53:00,79.2,67.7,30.04,East,100,0.0,5.0,68,0.00,,CLR,0.00,VWS V14.01,2013-08-22 04:53:00,
2013-08-21 23:58:00,79.2,67.7,30.04,ENE,73,0.0,5.0,68,0.00,,CLR,0.00,VWS V14.01,2013-08-22 04:58:00,